User: anonymous   Login
Location: Dover
(39.1580°N, 75.5250°W)
Time: 10:53:41
(UTC-05:00)
Language:

Cosmos 1437 Rocket - Orbit

View from above orbital plane
View from above orbital plane
View from above satellite
View from above satellite

Ground track
Ground track

The orbit data is extracted from the following two-line orbital elements,

1 13771U 83003B   17050.23908398  .00000476  00000-0  27563-4 0  9992
2 13771  81.1361 138.8121 0040220  40.2310 320.1879 15.09589177855991
Epoch (UTC): 19 February 2017 05:44:16
Eccentricity: 0.0040220
inclination: 81.1361°
perigee height: 509 km
apogee height: 565 km
right ascension of ascending node: 138.8121°
argument of perigee: 40.2310°
revolutions per day: 15.09589177
mean anomaly at epoch: 320.1879°
orbit number at epoch: 85599

The dashed part of the orbit path shows where the satellite is in the earth's shadow,  

DLR